Theta_e
323 324 323 321 321 321 320 321 320 320 320 319 319 319 319 317 315 314 313 312 312 310 310 309 309 310 312 314 315 318 315 314 313 312 312 312 313 314 314 314 315 315 315
323 323 322 321 321 321 321 322 321 320 320 320 319 318 318 316 316 312 313 311 310 310 307 308 308 309 311 312 314 315 315 313 311 312 311 312 309 309 310 310 310 311 311
323 321 319 318 318 318 319 320 321 321 320 319 316 316 315 315 311 311 310 310 310 310 307 308 309 309 310 312 313 313 314 313 311 312 313 314 314 310 308 307 307 306 307
322 320 319 318 319 317 316 316 317 317 320 321 319 317 316 315 311 311 311 311 309 309 308 308 309 309 309 311 312 313 313 314 313 311 313 312 313 313 313 309 308 307 306
319 321 319 319 319 319 318 317 316 315 317 317 316 315 314 314 313 311 311 310 309 309 309 309 308 308 308 309 311 312 313 314 314 312 312 311 311 312 313 313 309 307 306
305 306 310 319 320 319 318 318 318 318 317 315 312 312 313 313 311 310 310 310 310 309 309 309 308 308 308 308 308 311 313 313 313 313 313 311 311 312 311 312 311 308 306
304 305 306 308 309 314 319 319 318 319 318 317 315 313 310 310 310 310 310 310 310 309 309 309 309 308 308 308 308 308 310 312 312 313 313 312 311 311 311 310 309 308 304
302 303 302 303 305 307 308 312 317 319 317 318 318 318 317 310 310 310 310 310 310 310 309 309 308 308 308 307 307 307 307 309 311 312 312 313 312 310 309 309 309 307 302
301 300 299 299 299 301 302 305 308 309 313 316 316 315 316 317 317 315 313 310 310 309 309 308 308 308 307 307 307 306 307 307 308 310 312 312 312 310 309 309 309 311 311
298 297 297 296 296 296 297 298 300 302 305 308 310 313 314 314 314 314 313 314 314 314 313 313 311 307 307 306 306 306 306 306 306 306 308 309 310 310 307 306 307 308 310
295 295 293 293 293 293 293 293 295 296 297 298 303 307 308 310 312 312 313 313 313 313 314 313 313 313 312 308 306 305 305 305 305 305 305 306 307 305 305 304 304 303 305
293 292 291 291 290 290 290 291 292 293 294 295 297 300 303 306 308 310 311 311 311 310 311 310 311 312 313 310 309 310 307 304 304 304 303 303 303 302 301 302 301 300 300
292 291 291 290 289 289 289 289 290 290 291 292 293 295 297 299 302 305 307 310 311 312 311 310 310 311 310 309 309 309 308 308 305 302 302 302 300 299 300 300 299 298 297
290 290 290 289 288 288 288 288 288 289 289 290 291 293 294 295 297 299 302 306 308 310 311 311 310 309 308 307 307 308 307 305 305 303 304 304 302 302 300 298 296 295 296
289 289 288 288 287 287 287 287 287 287 288 288 289 290 291 293 294 296 298 300 302 306 309 310 310 310 309 309 308 307 305 304 303 303 302 301 303 302 301 299 295 295 296
288 287 287 286 286 286 286 286 286 286 287 287 288 289 289 290 292 294 295 297 298 301 305 308 308 309 309 309 309 308 305 304 301 300 299 298 297 299 299 297 296 296 298
286 286 286 285 285 285 285 285 285 285 286 286 286 287 287 288 288 290 290 292 295 298 301 304 306 307 308 308 307 307 305 303 301 299 298 296 296 295 295 295 295 297 299
285 285 285 285 284 284 284 284 284 285 285 286 286 286 286 287 287 288 289 290 292 295 297 300 303 305 305 306 306 306 303 301 300 299 298 297 295 294 294 295 295 295 297
284 284 284 284 284 283 283 283 284 284 284 285 284 285 285 286 286 287 288 288 290 293 295 296 298 302 304 304 305 304 302 299 298 297 296 295 294 294 294 294 294 293 292
283 283 283 283 283 283 282 282 283 283 284 283 283 284 284 285 285 286 286 287 288 290 292 294 296 298 301 302 303 303 301 298 296 295 295 294 294 294 293 293 292 290 289
282 282 282 282 282 282 282 282 282 283 282 282 282 283 283 284 284 285 285 286 287 288 289 292 294 296 298 299 301 302 300 298 296 294 293 293 293 293 294 293 292 293 290
281 281 281 281 281 281 281 281 282 281 281 281 282 282 282 283 284 284 285 286 286 287 289 291 293 295 296 297 299 300 300 299 296 294 293 292 293 293 293 292 291 290 288
280 280 280 279 279 279 279 279 280 280 280 280 281 281 282 283 283 285 286 287 288 288 289 291 293 294 295 295 297 298 298 299 296 294 293 293 292 293 293 291 290 289 288
278 279 278 278 278 278 278 278 278 279 279 279 280 281 282 282 283 284 285 287 288 289 291 292 293 294 294 294 295 296 297 298 297 293 292 291 292 292 291 289 289 289 287
278 277 277 277 277 277 277 277 277 278 278 278 279 280 281 282 283 283 285 286 287 289 291 291 292 293 293 293 294 294 295 297 297 292 290 290 291 290 290 288 288 287 286
277 277 276 276 276 276 276 276 277 277 277 278 279 279 281 282 283 284 284 285 287 288 289 291 291 292 292 292 292 293 294 296 294 290 290 289 289 289 289 288 285 285 285
Wind_Speed
7 11 11 16 12 8 14 22 22 19 15 14 12 13 14 12 12 12 14 12 12 13 15 12 13 16 15 15 15 15 14 12 13 12 7 6 8 10 11 12 12 12 12
6 7 8 12 9 5 10 16 18 18 16 12 12 10 13 12 13 16 18 16 14 14 14 14 14 17 15 16 17 17 15 10 17 11 11 4 7 11 13 12 13 14 13
8 10 10 6 9 8 11 7 13 21 20 16 11 11 10 12 12 13 13 16 16 18 19 19 15 16 16 17 19 20 20 16 18 16 9 4 6 12 14 16 14 14 14
10 9 9 6 8 6 3 3 8 18 20 19 15 14 13 14 14 15 15 16 18 19 21 21 20 20 20 18 20 21 22 19 19 17 18 7 4 5 4 14 17 16 16
15 10 9 10 8 4 4 4 5 8 15 15 14 13 13 11 8 11 13 16 18 20 20 22 22 22 22 21 19 20 22 24 22 25 19 14 7 6 4 4 11 17 17
18 18 20 10 5 1 3 3 3 6 8 11 11 11 13 11 9 9 10 13 17 21 23 23 24 25 25 25 25 23 23 25 25 22 21 19 13 14 8 3 9 14 16
21 20 20 23 24 21 5 6 6 5 6 12 14 13 13 13 13 13 13 12 12 17 23 25 26 27 29 29 28 26 25 26 26 26 26 24 23 17 18 12 6 5 8
19 21 27 27 28 28 28 26 15 8 7 8 11 15 15 16 14 15 15 14 14 16 18 22 25 27 27 28 28 29 31 28 31 30 30 29 27 24 21 17 12 4 9
20 21 27 29 29 30 31 30 27 27 22 11 11 12 13 16 18 19 19 19 17 20 23 22 24 26 30 31 30 28 28 28 28 29 30 29 27 26 26 24 22 19 8
20 19 26 28 30 30 28 29 27 25 23 20 17 16 14 11 12 14 17 20 23 24 25 26 24 23 24 28 29 28 29 29 29 29 28 29 29 25 24 26 24 24 22
18 17 23 25 25 26 29 29 29 28 27 28 24 20 16 12 11 13 14 18 20 20 23 27 25 26 26 29 27 25 24 26 26 24 26 27 25 24 23 21 20 22 21
15 19 23 24 26 27 27 27 26 26 25 25 24 22 20 19 17 14 13 13 17 20 19 25 22 24 22 28 34 35 33 34 32 31 28 27 23 24 22 27 28 25 26
15 16 19 22 24 26 27 27 26 26 25 25 24 21 20 20 20 19 16 14 15 17 19 21 20 21 24 28 34 33 36 39 38 34 33 29 28 24 28 30 29 28 27
16 16 18 21 22 22 24 26 27 28 28 26 25 24 24 22 21 20 18 17 15 17 17 21 24 25 26 28 27 28 31 35 36 41 39 37 35 34 37 34 33 32 28
16 17 17 25 28 28 27 25 24 25 28 28 28 27 27 25 25 23 21 22 20 19 18 19 21 23 25 27 27 29 29 33 33 36 38 40 42 42 45 43 39 39 28
15 15 19 22 25 28 30 30 31 30 27 25 25 26 27 29 28 27 28 27 24 21 20 20 21 24 25 27 27 28 29 30 31 33 35 34 38 39 40 42 41 39 35
14 15 18 20 22 24 27 30 31 30 30 30 29 27 27 27 27 28 29 30 29 27 25 23 22 25 27 27 27 27 30 29 31 33 34 36 37 38 38 37 37 38 33
14 17 19 22 23 23 24 26 28 29 30 29 30 31 31 31 31 30 29 29 28 29 28 27 25 25 27 28 27 26 30 32 32 32 36 38 36 40 39 33 32 32 26
13 14 16 19 21 21 23 24 24 23 25 29 33 34 34 34 33 33 33 32 31 29 28 28 28 27 27 27 28 25 28 33 31 32 33 36 37 41 36 36 35 29 27
14 18 18 18 18 21 23 24 25 26 26 28 30 32 34 34 35 35 35 34 32 33 31 30 29 30 30 25 28 27 29 30 29 29 32 34 38 38 38 39 36 30 30
14 14 14 16 18 19 21 22 23 24 28 31 32 34 35 34 34 33 32 33 34 34 34 32 29 30 30 27 29 29 31 31 28 27 29 34 35 38 41 42 41 37 30
18 16 17 18 18 19 21 23 23 26 29 32 34 36 36 35 34 35 35 33 32 34 34 30 30 29 29 27 30 31 32 34 31 30 31 33 38 41 43 36 34 29 30
19 18 19 21 19 18 20 23 25 27 29 31 33 35 37 36 34 35 36 34 31 29 29 27 27 26 24 26 31 31 31 36 35 32 34 36 35 39 40 35 34 34 30
17 18 20 20 21 21 22 22 26 26 28 31 32 33 31 35 36 33 34 31 32 29 27 25 26 25 24 24 23 25 28 31 37 29 27 31 34 39 37 34 34 32 28
17 18 19 21 23 24 23 22 25 26 29 29 30 31 30 31 34 33 33 33 33 33 29 28 26 23 21 23 25 24 25 27 31 30 27 27 30 28 28 31 30 27 26
20 19 20 21 24 25 25 24 24 25 29 30 28 30 31 31 31 33 35 34 31 31 32 30 29 29 29 29 24 25 28 28 33 29 26 28 32 30 28 28 27 28 27
Wind_Direction
156 120 112 116 97 115 153 163 164 165 167 173 171 186 193 194 198 201 202 205 207 208 205 199 198 198 198 198 193 189 178 171 171 155 165 184 193 198 201 201 198 194 189
109 119 91 80 90 133 107 161 181 185 180 184 187 191 195 208 207 207 211 217 216 213 206 202 199 202 201 203 197 192 185 184 184 184 170 190 210 217 213 206 203 201 200
96 84 81 142 162 166 208 162 187 199 194 191 188 192 194 206 207 211 212 221 222 218 216 215 211 209 207 209 207 202 198 193 196 195 189 182 223 191 210 214 212 208 208
66 65 92 75 51 5 286 246 222 203 197 199 203 203 210 209 212 214 220 225 221 220 223 224 225 223 219 215 212 211 209 204 199 201 218 230 178 204 184 215 214 214 216
27 33 54 76 68 27 79 160 195 192 200 196 205 207 220 221 225 221 225 225 226 227 229 230 231 228 225 225 219 215 213 213 214 205 202 215 211 221 219 172 198 214 216
27 28 20 2 10 7 85 156 145 210 215 207 213 224 235 234 233 234 234 228 228 230 232 233 232 233 232 232 230 224 220 216 218 216 215 212 210 216 204 196 194 207 207
33 29 30 26 24 17 314 228 211 182 208 219 222 229 248 250 244 241 241 241 234 232 235 235 235 235 236 237 235 230 225 225 222 221 220 225 225 228 222 231 183 189 192
33 35 32 31 29 29 26 23 353 279 244 244 243 233 241 251 250 248 247 242 246 248 249 246 242 240 239 237 235 232 233 228 226 224 224 226 226 219 221 220 201 186 203
29 29 30 31 28 29 27 26 25 25 23 359 295 281 264 265 264 263 258 256 254 258 263 259 254 251 247 243 238 234 231 229 227 228 228 227 230 227 226 226 223 229 219
20 21 21 21 21 20 21 27 27 26 20 17 11 6 352 329 305 289 277 275 273 271 269 267 257 250 247 246 241 236 235 232 232 230 230 229 228 228 231 223 226 231 239
14 14 14 16 15 14 17 15 16 13 14 8 9 6 358 347 321 306 306 295 290 282 272 269 260 260 260 249 245 238 237 234 231 230 229 230 227 222 224 223 222 224 223
15 10 9 8 9 9 9 8 7 6 5 1 359 0 359 357 351 341 320 296 280 279 279 267 266 262 263 262 253 249 242 238 235 230 228 227 222 224 218 223 221 218 215
7 8 10 9 6 3 2 1 0 358 355 354 353 352 351 347 345 336 327 309 296 290 274 268 270 272 264 258 257 254 245 240 239 232 234 226 221 218 224 223 214 209 204
1 358 1 2 1 1 359 356 353 351 348 348 347 345 342 339 335 330 326 316 309 295 285 279 273 262 255 253 258 260 252 246 239 235 232 231 228 231 226 213 207 204 193
1 360 356 353 353 353 353 352 351 349 345 342 341 339 335 333 331 330 326 320 314 300 283 271 271 274 271 268 264 259 253 241 236 235 233 232 230 225 224 211 202 197 183
357 355 354 353 351 349 347 345 345 345 343 340 337 334 333 330 328 326 324 319 314 307 295 279 267 269 268 269 268 265 257 252 237 230 229 226 226 225 225 214 210 206 193
351 350 350 350 349 347 344 342 341 340 342 339 338 335 331 325 321 315 312 310 309 307 298 285 272 261 263 265 266 266 257 252 244 235 226 220 220 216 210 213 211 210 212
346 344 344 342 343 341 342 338 339 338 338 337 335 333 330 325 321 316 311 306 301 295 293 289 279 267 260 262 260 261 248 243 243 236 229 221 212 208 203 196 197 205 210
331 330 331 332 332 336 337 334 332 334 334 333 331 329 325 321 319 315 310 306 300 292 286 282 277 268 261 261 260 256 233 229 231 230 223 215 207 206 195 191 193 197 199
336 331 330 329 331 333 334 333 333 334 333 330 324 321 319 317 315 313 308 303 298 292 287 279 273 264 261 260 261 257 229 220 224 223 221 213 210 201 191 191 189 181 185
329 328 325 326 329 330 330 329 329 330 328 325 322 320 317 314 311 308 305 301 298 295 288 277 274 267 258 257 255 255 230 219 215 211 210 210 205 200 194 198 194 196 180
329 328 324 325 326 329 328 324 323 325 325 324 322 319 319 314 311 309 305 298 291 289 284 277 278 269 258 255 255 251 240 223 214 210 212 211 205 200 197 190 190 176 169
320 321 322 320 321 323 324 319 320 323 324 323 322 319 318 316 313 309 308 303 297 282 279 275 276 270 260 253 258 253 241 230 217 217 214 213 203 200 189 184 176 171 167
316 320 318 317 318 323 322 318 321 322 323 320 316 316 316 317 315 311 308 304 304 288 273 273 273 268 259 251 251 250 242 237 216 209 203 200 196 190 181 174 173 171 172
315 318 316 317 317 321 319 320 322 323 323 319 315 316 315 315 314 309 308 306 302 297 282 278 273 265 260 252 251 246 240 232 211 193 184 179 177 176 172 167 171 166 164
318 316 316 316 319 320 318 320 323 325 324 321 318 316 318 319 313 313 314 313 305 304 299 291 284 267 263 266 262 256 248 232 194 180 178 176 177 176 170 162 155 158 161